Location: Almena City Lake
(39.8850°N, 99.6804°W)
Time: 07:37:08
(UTC+00:00)

Cosmos 1153 Rocket - Pass Details

Date: 18 February 2020
Orbit: 953 x 1007 km, 82.9° (Epoch: 30 March)

Event Time Altitude Azimuth Distance (km) Brightness Sun altitude
Rises 11:43:55 0° 350° (N) 3,647 7.4 -20.6°
Reaches altitude 10° 11:46:26 10° 349° (N) 2,693 6.7 -20.1°
Maximum altitude 11:52:34 74° 266° (W) 993 4.3 -19.0°
Drops below altitude 10° 11:58:38 10° 182° (S) 2,672 6.8 -17.8°
Sets 12:01:07 0° 181° (S) 3,616 7.5 -17.3°
